• Join FlightAware (Why Join?)
  • Login
  • US Flag GB Flag 
12:24 EDT


 

Airport Tracker/Info


-or-


 

Live Flight TrackerFlight Track Log ✈ AWE3794 ✈ 17-Apr-2013 ✈ KPHL - KCLE

Flight Track Log - Related Links

Times and Time Zones

All times are in EDT time to prevent confusion due to time zone crossing. See the AWE3794 flight status page for this flight to view local times or setup timezone preferences in your user account.

Time Position Orientation Groundspeed Altitude Reporting Facility
EDT Latitude Longitude Course Direction KTS MPH feet Rate Location/Type
07:47 39.8667 -75.2833 311° West 155 178 800  Level Philadelphia TRACON
07:48 39.8508 -75.3069 229° Southwest 186 214 1,500 1,320 Climbing FAA TRACON SMA TRACON (SMA)
07:48 39.8450 -75.3289 251° West 206 237 1,900 1,200 Climbing FAA TRACON SMA TRACON (SMA)
07:49 39.8372 -75.3594 252° West 236 272 2,300 1,500 Climbing FAA TRACON SMA TRACON (SMA)
07:49 39.8303 -75.3864 251° West 257 296 2,900 2,100 Climbing FAA TRACON SMA TRACON (SMA)
07:49 39.8239 -75.4128 253° West 254 292 3,700 2,700 Climbing FAA TRACON SMA TRACON (SMA)
07:50 40.0658 -75.4157 323° Northwest  Level FlightAware Approximate
07:50 39.8167 -75.4461 254° West 251 289 4,700  Level FAA TRACON SMA TRACON (SMA)
07:50 39.8258 -75.4717 295° West 246 283 5,500 2,220 Climbing FAA TRACON SMA TRACON (SMA)
07:50 39.8422 -75.4897 320° Northwest 250 288 6,200 2,100 Climbing FAA TRACON SMA TRACON (SMA)
07:51 40.1336 -75.4835 323° Northwest  Level FlightAware Approximate
07:51 39.8675 -75.5033 338° Northwest 257 296 6,900  Level FAA TRACON SMA TRACON (SMA)
07:51 39.8908 -75.5078 352° North 276 318 7,500 1,620 Climbing FAA TRACON SMA TRACON (SMA)
07:51 39.9142 -75.5108 354° North 272 313 8,000 1,920 Climbing FAA TRACON SMA TRACON (SMA)
07:52 40.2018 -75.5500 North  Level FlightAware Approximate
07:52 39.9431 -75.5147 354° North 272 313 8,800  Level FAA TRACON SMA TRACON (SMA)
07:52 39.9664 -75.5189 352° North 269 310 9,700 2,400 Climbing FAA TRACON SMA TRACON (SMA)
07:52 39.9906 -75.5236 351° North 268 308 10,400 1,620 Climbing FAA TRACON SMA TRACON (SMA)
07:53 40.2631 -75.6195 311° West  Level FlightAware Approximate
07:53 40.0192 -75.5289 352° North 293 337 10,800  Level FAA TRACON SMA TRACON (SMA)
07:53 40.0442 -75.5333 352° North 307 353 11,100 1,200 Climbing FAA TRACON SMA TRACON (SMA)
07:53 40.0714 -75.5378 353° North 310 357 11,600 1,620 Climbing FAA TRACON SMA TRACON (SMA)
07:54 40.1058 -75.5439 352° North 319 367 12,200 1,620 Climbing FAA TRACON SMA TRACON (SMA)
07:54 40.1336 -75.5481 353° North 323 372 12,700 1,200 Climbing FAA TRACON SMA TRACON (SMA)
07:54 40.1619 -75.5519 354° North 325 374 13,000 720 Climbing FAA TRACON SMA TRACON (SMA)
07:55 40.1964 -75.5575 353° North 325 374 13,200 1,020 Climbing FAA TRACON SMA TRACON (SMA)
07:55 40.2228 -75.5650 348° North 328 377 13,700 1,020 Climbing FAA TRACON SMA TRACON (SMA)
07:55 40.2458 -75.5858 325° Northwest 325 374 13,900 1,500 Climbing FAA TRACON SMA TRACON (SMA)
07:56 40.2675 -75.6228 308° West 328 377 14,700 1,980 Climbing FAA TRACON SMA TRACON (SMA)
07:56 40.2842 -75.6519 307° West 327 376 15,200 1,200 Climbing FAA TRACON SMA TRACON (SMA)
07:56 40.3022 -75.6811 309° West 333 383 15,500 1,200 Climbing FAA TRACON SMA TRACON (SMA)
07:57 40.3250 -75.7175 309° West 341 392 16,000 1,320 Climbing FAA TRACON SMA TRACON (SMA)
07:57 40.3456 -75.7467 313° West 344 396 16,400 1,500 Climbing FAA TRACON SMA TRACON (SMA)
07:57 40.3650 -75.7764 311° West 347 399 17,000 1,020 Climbing FAA TRACON SMA TRACON (SMA)
07:58 40.3697 -75.7839 310° West 346 398 17,100 120 Climbing FAA TRACON SMA TRACON (SMA)
07:58 40.3697 -75.7839 21° North 346 398 17,100 1,500 Level FAA TRACON SMA TRACON (SMA)
07:58 40.4339 -75.8892 309° West 343 395 18,500 1,500 Climbing New York Center
08:00 40.4578 -76.0108 285° West 333 383 19,500 960 Climbing New York Center
08:00 40.4792 -76.1408 282° West 347 399 20,500 1,020 Climbing New York Center
08:01 40.4983 -76.2678 281° West 360 414 21,600 1,140 Climbing New York Center
08:02 40.5192 -76.3978 282° West 360 414 22,900 960 Climbing New York Center
08:03 40.5483 -76.5258 287° West 360 414 23,600 600 Climbing New York Center
08:05 40.5733 -76.6536 284° West 365 420 24,200 660 Climbing New York Center
08:06 40.5983 -76.7817 284° West 365 420 25,000 660 Climbing New York Center
08:06 40.6267 -76.9181 285° West 370 426 25,600 600 Climbing New York Center
08:07 40.6547 -77.0575 285° West 370 426 26,300 660 Climbing New York Center
08:08 40.6808 -77.1911 284° West 370 426 27,000 780 Climbing New York Center
08:09 40.7094 -77.3172 287° West 370 426 27,900 300 Climbing New York Center
08:12 40.7658 -77.5892 285° West 367 422 28,000  Climbing Cleveland Center
08:13 40.7900 -77.7144 284° West 367 422 28,000  Level Cleveland Center
08:14 40.8139 -77.8422 284° West 361 415 28,000  Level Cleveland Center
08:15 40.8397 -77.9675 285° West 361 415 28,000  Level Cleveland Center
08:16 40.8636 -78.0928 284° West 355 409 28,000  Level Cleveland Center
08:17 40.8869 -78.2183 284° West 355 409 28,000 -780 Level Cleveland Center
08:18 40.9169 -78.3603 286° West 355 409 26,500 -1,020 Descending Cleveland Center
08:19 40.9422 -78.4886 285° West 360 414 26,000 -300 Descending Cleveland Center
08:20 40.9653 -78.6142 284° West 360 414 26,000  Level Cleveland Center
08:21 40.9883 -78.7400 284° West 355 409 26,000  Level Cleveland Center
08:22 41.0133 -78.8686 284° West 355 409 26,000  Level Cleveland Center
08:23 41.0358 -78.9919 284° West 355 409 26,000  Level Cleveland Center
08:24 41.0583 -79.1208 283° West 355 409 26,000  Level Cleveland Center
08:25 41.0808 -79.2472 283° West 355 409 26,000  Level Cleveland Center
08:26 41.1053 -79.3706 285° West 355 409 26,000 -180 Level Cleveland Center
08:27 41.1272 -79.4969 283° West 355 409 25,700 -660 Descending Cleveland Center
08:28 41.1492 -79.6236 283° West 355 409 24,700 -900 Descending Cleveland Center
08:29 41.1689 -79.7392 283° West 355 409 24,000 -360 Descending Cleveland Center
08:30 41.1886 -79.8603 282° West 350 403 24,000  Level Cleveland Center
08:31 41.2122 -79.9842 284° West 350 403 24,000  Level Cleveland Center
08:32 41.2356 -80.1139 283° West 345 397 24,000 -180 Level Cleveland Center
08:33 41.2569 -80.2267 284° West 345 397 23,700 -1,200 Descending Cleveland Center
08:34 41.2803 -80.3647 283° West 345 397 21,700 -1,920 Descending Cleveland Center
08:35 41.2992 -80.4864 282° West 345 397 19,900 -1,740 Descending Cleveland Center
08:36 41.3181 -80.6053 282° West 333 383 18,300 -1,440 Descending Cleveland Center
08:37 41.3386 -80.6992 286° West 336 387 17,300 -1,500 Descending Cleveland Center
08:38 41.3803 -80.8128 296° West 309 356 15,500 -1,620 Descending Cleveland Center
08:39 41.4197 -80.9100 298° West 306 352 14,100 -1,560 Descending Cleveland Center
08:40 41.4567 -81.0097 296° West 296 341 12,400 -1,560 Descending Cleveland Center
08:41 41.4897 -81.1069 294° West 301 346 10,900 -1,200 Descending Cleveland Center
08:42 41.4850 -81.2094 267° West 283 326 10,000 -420 Descending Cleveland Center
08:43 41.4761 -81.3147 264° West 283 326 10,100  Climbing Cleveland Center
08:44 41.4692 -81.4172 265° West 283 326 10,000  Descending Cleveland Center
08:44 41.4647 -81.4531 261° West 282 325 10,100 -120 Climbing Cleveland Center
08:45 41.4600 -81.5225 265° West 288 331 9,900 -720 Descending Cleveland Center
08:45 41.4514 -81.5528 249° West 266 306 9,400 -2,040 Descending Cleveland Center
08:46 41.4256 -81.6464 250° West 255 293 7,300 -1,380 Descending Cleveland Center
08:47 41.4039 -81.7264 250° West 265 305 6,800 -1,140 Descending Cleveland Center
08:48 41.3553 -81.8003 229° Southwest 253 291 5,100 -1,680 Descending Cleveland Center
08:49 41.3147 -81.8714 233° Southwest 241 277 3,500 -1,620 Descending Cleveland Center